Location: Foulognes
(49.1413°N, 0.8183°W)
Time: 23:30:00
(UTC+00:00)

Cosmos 2173 Rocket - Pass Details

Date: 21 October 2019
Orbit: 944 x 1001 km, 83.0° (Epoch: 13 November)

Event Time Altitude Azimuth Distance (km) Brightness Sun altitude
Rises 19:03:15 0° 350° (N) 3,699 7.3 -20.4°
Reaches altitude 10° 19:05:48 10° 351° (N) 2,738 6.5 -20.8°
Maximum altitude 19:12:05 87° 80° (E) 975 3.9 -21.9°
Drops below altitude 10° 19:18:14 10° 171° (S) 2,681 6.1 -22.9°
Sets 19:20:42 0° 172° (S) 3,616 6.8 -23.3°
